CW0005 Weather Reports


Display with metric or nautical units.
time (UTC)temp
F
wind
direction
speed
MPH
gust
MPH
rain 1hr
in
rain 24hr
in
rain mn
in
humidity
%
barometer
mb
20260904013006 85 135 0.0 0.0 0.00 0.00 0.00 67 1011.1
20260904011508 86 135 0.0 0.0 0.00 0.00 0.00 65 1011.0
20260904010008 87 135 0.0 0.0 0.00 0.00 0.00 64 1011.1
20260904004502 88 135 0.0 0.0 0.00 0.00 0.00 63 1011.0
20260904003001 88 135 0.0 2.0 0.00 0.00 0.00 62 1011.1
20260904001503 89 135 0.0 3.0 0.00 0.00 0.00 61 1010.9
20260904000014 90 154 0.0 1.0 0.00 0.00 0.00 61 1010.8
20260903234514 91 235 0.0 3.0 0.00 0.00 0.00 58 1010.8
20260903233028 92 3 1.0 4.0 0.00 0.00 0.00 56 1010.7
20260903231508 93 325 0.0 3.0 0.00 0.00 0.00 55 1010.7
20260903230007 94 12 0.0 6.0 0.00 0.00 0.00 54 1010.7
20260903224523 94 73 1.0 4.0 0.00 0.00 0.00 51 1010.6
20260903223020 94 200 0.0 4.0 0.00 0.00 0.00 53 1010.6
20260903221526 95 202 1.0 7.0 0.00 0.00 0.00 52 1010.6
20260903220024 95 167 0.0 4.0 0.00 0.00 0.00 52 1010.6
20260903214512 95 309 1.0 8.0 0.00 0.00 0.00 52 1010.7
20260903213013 95 344 1.0 5.0 0.00 0.00 0.00 53 1010.9
20260903211513 95 340 1.0 4.0 0.00 0.00 0.00 54 1011.0
20260903210029 95 318 0.0 5.0 0.00 0.00 0.00 56 1011.1
20260903204530 94 250 0.0 6.0 0.00 0.00 0.00 56 1011.5
20260903203006 94 216 1.0 5.0 0.00 0.00 0.00 59 1011.7
20260903201502 93 271 0.0 2.0 0.00 0.00 0.00 57 1011.8
20260903200003 93 226 0.0 2.0 0.00 0.00 0.00 56 1012.0
20260903194503 92 268 0.0 0.0 0.00 0.00 0.00 59 1012.3
20260903193006 91 220 0.0 0.0 0.00 0.00 0.00 60 1012.6
20260903191503 91 140 0.0 0.0 0.00 0.00 0.00 58 1012.5
20260903190003 91 254 0.0 1.0 0.00 0.00 0.00 57 1012.8
20260903184510 92 12 1.0 3.0 0.00 0.00 0.00 57 1012.8
20260903183017 92 256 0.0 2.0 0.00 0.00 0.00 58 1012.7
20260903181504 92 29 0.0 4.0 0.00 0.00 0.00 56 1012.8
20260903180002 92 280 0.0 3.0 0.00 0.00 0.00 56 1013.0
20260903174503 91 346 1.0 9.0 0.00 0.00 0.00 56 1013.2
20260903173003 90 323 0.0 3.0 0.00 0.00 0.00 59 1013.1
20260903171503 90 273 0.0 3.0 0.00 0.00 0.00 63 1013.2
20260903170007 89 329 1.0 4.0 0.00 0.00 0.00 60 1013.3
20260903164503 89 25 0.0 3.0 0.00 0.00 0.00 61 1013.2
20260903163004 89 325 0.0 0.0 0.00 0.00 0.00 62 1013.2
20260903161506 88 36 0.0 0.0 0.00 0.00 0.00 61 1013.2
20260903160005 86 82 0.0 0.0 0.00 0.00 0.00 66 1013.3
20260903154503 84 118 0.0 0.0 0.00 0.00 0.00 71 1013.5
20260903153003 83 135 0.0 0.0 0.00 0.00 0.00 71 1013.5
20260903151509 82 135 0.0 0.0 0.00 0.00 0.00 71 1013.6
20260903150014 82 135 0.0 3.0 0.00 0.00 0.00 73 1013.6
20260903144515 81 135 0.0 1.0 0.00 0.00 0.00 75 1013.6
20260903143011 80 135 0.0 0.0 0.00 0.00 0.00 76 1013.6
20260903141510 79 135 0.0 0.0 0.00 0.00 0.00 77 1013.5
20260903140012 77 135 0.0 0.0 0.00 0.00 0.00 80 1013.5
20260903134510 76 135 0.0 0.0 0.00 0.00 0.00 83 1013.9
20260903133018 75 135 0.0 0.0 0.00 0.00 0.00 85 1013.7
20260903131523 75 135 0.0 0.0 0.00 0.00 0.00 86 1013.9
20260903130019 74 135 0.0 0.0 0.00 0.00 0.00 86 1013.8
20260903124510 74 135 0.0 0.0 0.00 0.00 0.00 85 1013.7
20260903123012 74 135 0.0 0.0 0.00 0.00 0.00 84 1013.5
20260903121526 74 135 0.0 0.0 0.00 0.00 0.00 84 1013.2
20260903120038 74 135 0.0 0.0 0.00 0.00 0.00 82 1013.0
20260903114531 74 135 0.0 0.0 0.00 0.00 0.00 82 1012.8
20260903113007 75 135 0.0 0.0 0.00 0.00 0.00 81 1013.0
20260903111503 75 135 0.0 0.0 0.00 0.00 0.00 81 1012.7
20260903110004 75 135 0.0 0.0 0.00 0.00 0.00 80 1012.4
20260903104504 76 135 0.0 0.0 0.00 0.00 0.00 79 1012.1
20260903103003 76 135 0.0 0.0 0.00 0.00 0.00 79 1012.0
20260903101508 76 135 0.0 0.0 0.00 0.00 0.00 78 1012.0
20260903100006 76 135 0.0 0.0 0.00 0.00 0.00 78 1011.9
20260903094506 77 135 0.0 0.0 0.00 0.00 0.00 77 1011.9
20260903093009 77 135 0.0 2.0 0.00 0.00 0.00 77 1012.0
20260903091502 77 135 0.0 2.0 0.00 0.00 0.00 77 1011.9
20260903090006 77 135 0.0 1.0 0.00 0.00 0.00 77 1011.8
20260903084504 77 135 0.0 1.0 0.00 0.00 0.00 77 1011.8
20260903083005 77 135 0.0 2.0 0.00 0.00 0.00 76 1011.7
20260903081503 78 135 0.0 0.0 0.00 0.00 0.00 76 1011.7
20260903080008 78 135 0.0 5.0 0.00 0.00 0.00 76 1011.8
20260903074506 78 135 0.0 0.0 0.00 0.00 0.00 76 1011.8
20260903073004 78 135 0.0 0.0 0.00 0.00 0.00 76 1011.8
20260903071504 78 135 0.0 0.0 0.00 0.00 0.00 76 1011.9
20260903070015 78 135 0.0 0.0 0.00 0.00 0.00 76 1011.9
20260903064519 78 135 0.0 0.0 0.00 0.00 0.00 76 1011.9
20260903063022 78 135 0.0 0.0 0.00 0.00 0.00 76 1012.0
20260903061532 79 135 0.0 0.0 0.00 0.00 0.00 75 1012.0
20260903060008 79 135 0.0 0.0 0.00 0.00 0.00 75 1011.9
20260903054513 79 135 0.0 0.0 0.00 0.00 0.00 74 1012.0
20260903053007 79 135 0.0 0.0 0.00 0.00 0.00 74 1012.0
20260903051527 80 135 0.0 0.0 0.00 0.00 0.00 73 1012.1
20260903050033 80 135 0.0 0.0 0.00 0.00 0.00 73 1012.1
20260903044512 80 135 0.0 0.0 0.00 0.00 0.00 73 1012.1
20260903043018 81 135 0.0 0.0 0.00 0.00 0.00 72 1012.1
20260903041529 81 135 0.0 0.0 0.00 0.00 0.00 72 1012.2
20260903040015 82 135 0.0 0.0 0.00 0.00 0.00 71 1012.2
20260903034513 82 135 0.0 0.0 0.00 0.00 0.00 71 1012.1
20260903033017 82 135 0.0 1.0 0.00 0.00 0.00 71 1012.1
20260903031525 83 135 0.0 1.0 0.00 0.00 0.00 71 1012.2
20260903030030 83 135 0.0 2.0 0.00 0.00 0.00 70 1012.2
20260903024530 83 135 0.0 0.0 0.00 0.00 0.00 70 1012.2
20260903023033 84 135 0.0 1.0 0.00 0.00 0.00 69 1012.1
20260903021518 84 135 0.0 2.0 0.00 0.00 0.00 69 1012.0
20260903020034 85 135 0.0 1.0 0.00 0.00 0.00 68 1011.9
20260903014515 85 135 0.0 2.0 0.00 0.00 0.00 68 1011.8